Weather in Laganas

Greece     37°43′46″N   20°52′05″E
temp.,
°C
wind,
m/s
gust,
m/s
humid.,
%
clouds,
%
prec.,
mm/h
press.,
hPa
HPBL,
m
4 july, mon
mon400:00+26ne67610 0.0 1012142
03:00+25ne33610 0.0 101250
06:00+24ne46620 0.0 1012137
09:00+28nne35440 0.0 1013289
12:00+31nne35380 0.0 1012569
15:00+32nw56390 0.0 1011901
18:00+29nw79560 0.0 1010320
21:00+27nw710750 0.0 1010161
5 july, tue
tue500:00+27ne46620 0.0 1012114
03:00+25ene44690 0.0 101284
06:00+25n33580 0.0 101247
09:00+28ne33360 0.0 1012166
12:00+32n24320 0.0 1012523
15:00+32wnw66450 0.0 1012945
18:00+30wnw67560 0.0 1011321
21:00+27nw610630 0.0 1010176
6 july, wed
wed600:00+26ne11780 0.0 101223
03:00+26sse22730 0.0 101126
06:00+25sse22790 0.0 101018
09:00+28nne12620 0.0 1011177
12:00+31wnw44520 0.0 1011571
15:00+30wnw68590 0.0 1011428
18:00+29wnw711640 0.0 1010319
21:00+27nw712740 0.0 1010273
7 july, thu
thu700:00+26nw811800 0.0 1010238
03:00+25nw69830 0.0 1010234
06:00+24nnw45870 0.0 1010165
09:00+28e11650 0.0 1010292
12:00+29wnw44590 0.0 1011691
15:00+28wnw810680 0.0 1011506
18:00+28wnw912740 0.0 1010432
21:00+26nw712800 0.0 1010335
8 july, fri
fri800:00+26nw59820 0.0 1011342
03:00+25nw48830 0.0 1011309
06:00+25nw34840 0.0 1010136
09:00+27s21660 0.0 1009356
12:00+29sw44630 0.0 1009789
15:00+28wsw57700 0.0 1009958
18:00+28wnw55700 0.0 1007791
21:00+25nw10107543 0.0 1007509